Weather History for Stuttgart, AR

Change the Weather History Date:

Thursday, January 3, 2013

  Actual Average Record
Temperature  
Mean Temperature 35 °F -  
Max Temperature 42 °F 48 °F 75 °F (2009)
Min Temperature 28 °F 34 °F 10 °F (2001)
Degree Days  
Heating Degree Days 30    
Moisture  
Dew Point 27 °F    
Average Humidity 74    
Maximum Humidity 87    
Minimum Humidity 57    
Precipitation  
Precipitation 0.00 in - - ()
Sea Level Pressure  
Sea Level Pressure 30.39 in    
Wind  
Wind Speed 4 mph (NNW)    
Max Wind Speed 12 mph    
Max Gust Speed -    
Visibility 9 miles    
Events      
Averages and records for this station are not official NWS values.
T = Trace of Precipitation, MM = Missing Value Source: NWS Daily Summary

Daily Weather History Graph

Daily Weather History Graph

Search for Another Location

Airport:

Trip Planner

Search our weather history database for the weather conditions in past years. The results will help you decide how hot, cold, wet, or windy it might be!

Date:

Astronomy

Jan. 03, 2013 Rise Set
Actual Time 7:13 AM CST 5:08 PM CST
Civil Twilight 6:45 AM CST 5:36 PM CST
Nautical Twilight 6:14 AM CST 6:07 PM CST
Astronomical Twilight 5:43 AM CST 6:38 PM CST
Moon 11:26 PM CST (1/3) 10:41 AM CST (1/3)
Length of Visible Light 10h 50m
Length of Day
9h 54m
Waning Gibbous, 65% of the Moon is Illuminated
Jan 3
Waning Gibbous
Jan 4
Last Quarter
Jan 11
New
Jan 18
First Quarter
Jan 26
Full

Hourly Weather History & Observations

Time (CST) Temp. Windchill Dew Point Humidity Pressure Visibility Wind Dir Wind Speed Gust Speed Precip Events Conditions
12:15 AM 33.8 °F - 24.8 °F 70% 30.30 in 10.0 mi Calm Calm - N/A   Clear
12:35 AM 32.0 °F - 26.6 °F 80% 30.31 in 10.0 mi Calm Calm - N/A   Clear
12:55 AM 32.0 °F - 26.6 °F 80% 30.31 in 10.0 mi Calm Calm - N/A   Clear
1:15 AM 32.0 °F 28.7 °F 26.6 °F 80% 30.31 in 10.0 mi West 3.5 mph - N/A   Clear
1:35 AM 30.2 °F 25.4 °F 26.6 °F 86% 30.31 in 10.0 mi West 4.6 mph - N/A   Clear
1:55 AM 30.2 °F 24.3 °F 26.6 °F 86% 30.31 in 10.0 mi WNW 5.8 mph - N/A   Clear
2:15 AM 30.2 °F 24.3 °F 26.6 °F 86% 30.32 in 10.0 mi West 5.8 mph - N/A   Clear
2:35 AM 30.2 °F 25.4 °F 26.6 °F 86% 30.32 in 10.0 mi WNW 4.6 mph - N/A   Clear
2:55 AM 30.2 °F 26.7 °F 26.6 °F 86% 30.33 in 9.0 mi WNW 3.5 mph - N/A   Clear
3:15 AM 30.2 °F 25.4 °F 26.6 °F 86% 30.33 in 9.0 mi West 4.6 mph - N/A   Clear
3:35 AM 30.2 °F 24.3 °F 26.6 °F 86% 30.33 in 8.0 mi West 5.8 mph - N/A   Clear
3:55 AM 30.2 °F 24.3 °F 26.6 °F 86% 30.33 in 8.0 mi West 5.8 mph - N/A   Clear
4:15 AM 30.2 °F 25.4 °F 26.6 °F 86% 30.33 in 7.0 mi West 4.6 mph - N/A   Clear
4:35 AM 30.2 °F 25.4 °F 26.6 °F 86% 30.33 in 5.0 mi WNW 4.6 mph - N/A   Clear
5:15 AM 30.2 °F 26.7 °F 26.6 °F 86% 30.35 in 5.0 mi WNW 3.5 mph - N/A   Clear
5:35 AM 28.4 °F 24.6 °F 24.8 °F 86% 30.35 in 5.0 mi WNW 3.5 mph - N/A   Clear
5:55 AM 28.4 °F 23.3 °F 24.8 °F 86% 30.36 in 6.0 mi WNW 4.6 mph - N/A   Clear
6:15 AM 28.4 °F 22.2 °F 24.8 °F 86% 30.36 in 7.0 mi NW 5.8 mph - N/A   Clear
6:35 AM 28.4 °F - 24.8 °F 86% 30.36 in 6.0 mi Calm Calm - N/A   Clear
6:55 AM 28.4 °F 23.3 °F 24.8 °F 86% 30.36 in 6.0 mi NW 4.6 mph - N/A   Clear
7:15 AM 28.4 °F 23.3 °F 24.8 °F 86% 30.38 in 5.0 mi NW 4.6 mph - N/A   Clear
7:35 AM 28.4 °F 22.2 °F 24.8 °F 86% 30.38 in 4.0 mi NW 5.8 mph - N/A   Clear
7:55 AM 28.4 °F 21.2 °F 24.8 °F 86% 30.39 in 4.0 mi NW 6.9 mph - N/A   Clear
8:15 AM 30.2 °F 23.4 °F 26.6 °F 86% 30.40 in 4.0 mi NW 6.9 mph - N/A   Clear
8:55 AM 32.0 °F 25.6 °F 26.6 °F 80% 30.42 in 5.0 mi NNW 6.9 mph - N/A   Clear
9:15 AM 33.8 °F 27.0 °F 28.4 °F 81% 30.42 in 5.0 mi NNW 8.1 mph - N/A   Clear
9:55 AM 35.6 °F 29.2 °F 28.4 °F 75% 30.44 in 9.0 mi NNW 8.1 mph - N/A   Clear
10:15 AM 37.4 °F 30.3 °F 28.4 °F 70% 30.45 in 10.0 mi North 10.4 mph - N/A   Clear
10:55 AM 37.4 °F 30.8 °F 28.4 °F 70% 30.45 in 10.0 mi North 9.2 mph - N/A   Clear
11:15 AM 39.2 °F 33.0 °F 28.4 °F 65% 30.45 in 10.0 mi North 9.2 mph - N/A   Clear
11:35 AM 39.2 °F 33.6 °F 28.4 °F 65% 30.44 in 10.0 mi NNW 8.1 mph - N/A   Clear
11:55 AM 39.2 °F 34.2 °F 28.4 °F 65% 30.44 in 10.0 mi NNW 6.9 mph - N/A   Clear
12:35 PM 41.0 °F 35.2 °F 28.4 °F 61% 30.42 in 5.0 mi NNW 9.2 mph - N/A   Partly Cloudy
12:55 PM 41.0 °F 34.3 °F 28.4 °F 61% 30.41 in 10.0 mi North 11.5 mph - N/A   Scattered Clouds
1:35 PM 42.8 °F 38.0 °F 30.2 °F 61% 30.40 in 10.0 mi NNW 8.1 mph - N/A   Partly Cloudy
1:55 PM 42.8 °F 38.6 °F 28.4 °F 57% 30.39 in 10.0 mi North 6.9 mph - N/A   Scattered Clouds
2:15 PM 42.8 °F 38.0 °F 28.4 °F 57% 30.39 in 10.0 mi NNW 8.1 mph - N/A   Mostly Cloudy
2:35 PM 42.8 °F 38.6 °F 28.4 °F 57% 30.39 in 10.0 mi North 6.9 mph - N/A   Partly Cloudy
2:55 PM 42.8 °F 38.6 °F 28.4 °F 57% 30.40 in 10.0 mi NNW 6.9 mph - N/A   Clear
3:15 PM 42.8 °F 39.3 °F 28.4 °F 57% 30.40 in 10.0 mi North 5.8 mph - N/A   Clear
3:55 PM 42.8 °F 38.6 °F 28.4 °F 57% 30.40 in 10.0 mi NNW 6.9 mph - N/A   Clear
4:15 PM 42.8 °F 38.6 °F 28.4 °F 57% 30.40 in 10.0 mi NNW 6.9 mph - N/A   Clear
4:35 PM 41.0 °F 35.8 °F 28.4 °F 61% 30.39 in 10.0 mi NNW 8.1 mph - N/A   Clear
4:55 PM 39.2 °F 35.0 °F 28.4 °F 65% 30.41 in 10.0 mi NNW 5.8 mph - N/A   Clear
5:15 PM 39.2 °F - 30.2 °F 70% 30.42 in 10.0 mi Calm Calm - N/A   Clear
5:35 PM 39.2 °F - 28.4 °F 65% 30.43 in 10.0 mi Calm Calm - N/A   Clear
5:55 PM 39.2 °F - 28.4 °F 65% 30.44 in 10.0 mi Calm Calm - N/A   Clear
6:15 PM 39.2 °F 35.9 °F 28.4 °F 65% 30.44 in 10.0 mi ENE 4.6 mph - N/A   Clear
6:35 PM 39.2 °F 37.0 °F 28.4 °F 65% 30.44 in 10.0 mi ENE 3.5 mph - N/A   Clear
6:55 PM 39.2 °F 37.0 °F 28.4 °F 65% 30.45 in 10.0 mi ENE 3.5 mph - N/A   Clear
7:15 PM 39.2 °F 37.0 °F 28.4 °F 65% 30.45 in 10.0 mi East 3.5 mph - N/A   Clear
7:35 PM 37.4 °F 32.8 °F 28.4 °F 70% 30.44 in 10.0 mi East 5.8 mph - N/A   Clear
8:15 PM 37.4 °F 33.8 °F 28.4 °F 70% 30.45 in 10.0 mi East 4.6 mph - N/A   Clear
8:35 PM 37.4 °F 34.9 °F 28.4 °F 70% 30.46 in 10.0 mi East 3.5 mph - N/A   Clear
8:55 PM 37.4 °F - 28.4 °F 70% 30.46 in 10.0 mi Calm Calm - N/A   Clear
9:15 PM 37.4 °F - 28.4 °F 70% 30.45 in 10.0 mi Calm Calm - N/A   Clear
9:55 PM 37.4 °F - 28.4 °F 70% 30.46 in 10.0 mi Calm Calm - N/A   Clear
10:15 PM 37.4 °F 34.9 °F 28.4 °F 70% 30.46 in 10.0 mi SE 3.5 mph - N/A   Clear
10:35 PM 35.6 °F - 28.4 °F 75% 30.45 in 10.0 mi Calm Calm - N/A   Clear
10:55 PM 33.8 °F - 28.4 °F 81% 30.46 in 10.0 mi Calm Calm - N/A   Clear
11:35 PM 33.8 °F - 30.2 °F 87% 30.46 in 10.0 mi Calm Calm - N/A   Clear